Theta_e
310 300 304 303 293 290 286 287 293 294 295 297 297 297 297 294 297 294 297 303 305 307 310 314 321 322 323 323 324 325 326 329 331 334 338 340 342 347 348 348 349 350 351 352 353 353 353 352 352
302 302 302 296 286 282 283 289 290 295 296 296 293 294 295 293 294 294 297 301 302 305 308 312 317 319 320 321 322 323 324 325 326 328 331 334 338 339 345 347 349 347 350 351 352 352 353 352 352
299 298 298 291 284 282 283 288 292 292 293 293 292 292 293 292 293 294 297 300 300 300 303 310 314 316 316 317 319 320 320 321 323 324 325 327 330 333 337 342 346 347 347 349 350 352 351 351 351
297 295 289 287 284 286 287 289 291 290 291 292 292 291 291 293 294 295 298 298 298 298 299 306 311 312 313 314 315 316 317 318 320 321 322 323 323 326 332 335 339 344 346 346 348 350 350 349 351
290 289 284 283 283 287 287 290 289 289 289 290 291 290 290 292 294 296 297 297 296 296 297 299 306 307 309 310 312 313 314 315 316 317 318 319 320 320 323 327 331 337 342 345 346 348 347 348 348
288 286 281 279 281 285 287 289 289 288 288 289 289 288 289 293 293 294 295 295 295 294 295 295 299 302 304 306 308 309 310 312 312 313 314 315 315 316 317 319 325 328 333 339 344 346 346 346 346
286 283 280 279 280 283 286 288 287 287 287 288 290 287 289 290 293 294 293 293 294 294 293 294 294 296 298 300 303 304 306 307 308 308 309 310 310 311 313 314 316 321 327 332 338 341 344 345 344
285 284 281 280 281 283 286 287 288 287 287 289 291 288 288 290 293 292 292 292 292 293 292 292 293 293 293 295 299 300 301 302 303 304 304 305 304 306 307 309 312 316 320 325 331 337 338 342 343
287 282 279 282 281 283 286 285 288 289 288 289 290 289 290 291 291 290 290 290 291 291 291 291 291 292 292 294 295 295 296 297 299 300 300 300 301 302 303 306 309 313 316 319 326 332 335 336 334
285 280 281 283 283 283 285 285 286 286 286 287 288 289 289 290 290 290 289 290 290 290 289 290 290 290 291 293 293 292 293 294 295 296 296 298 300 301 302 303 306 309 311 315 321 327 332 330 337
285 282 283 285 286 285 285 284 286 285 284 287 287 288 288 288 288 289 289 289 289 289 289 289 289 290 290 291 292 291 292 292 294 294 295 297 298 300 300 301 303 305 308 311 316 322 328 335 336
283 285 286 287 288 286 284 285 284 284 287 288 288 289 288 287 288 288 288 288 288 288 288 288 288 288 289 290 290 290 291 293 292 293 295 294 296 297 298 299 301 303 306 308 312 316 319 324 335
284 285 286 287 286 285 285 284 284 284 286 287 287 288 287 287 287 288 288 288 288 287 287 287 288 288 288 288 289 289 290 291 291 292 293 294 294 295 297 298 300 302 304 306 308 310 315 320 326
286 286 285 286 286 285 284 283 283 287 286 285 286 286 287 287 287 287 286 286 286 287 287 287 288 288 288 287 288 288 289 290 291 291 292 293 294 295 297 297 298 301 303 305 307 308 310 315 321
286 283 284 284 285 284 284 282 281 287 286 285 285 285 286 287 287 287 287 286 286 286 287 286 287 288 286 286 287 287 288 289 289 290 291 292 294 295 296 296 297 298 301 304 306 307 310 314 320
283 282 279 284 284 284 284 279 285 286 285 285 285 284 284 286 287 286 286 286 285 286 285 285 286 285 286 286 286 287 287 288 289 290 291 291 294 295 296 295 296 298 300 301 303 306 307 311 317
280 276 278 281 284 283 282 280 286 285 285 285 285 284 283 283 284 285 285 284 284 284 284 283 284 284 285 285 286 286 287 287 289 289 289 291 292 294 294 294 295 297 298 300 302 304 307 309 314
277 277 278 278 282 282 280 279 284 287 283 285 285 285 283 283 283 284 283 283 283 283 283 282 283 284 284 285 284 285 286 287 287 287 289 290 290 291 292 293 295 297 297 298 302 303 307 309 315
280 279 278 279 282 280 280 279 282 286 284 283 283 282 282 281 282 282 282 282 282 282 281 281 281 282 283 282 281 282 282 284 285 286 287 289 290 291 293 294 297 298 298 298 300 303 304 306 312
280 278 277 280 281 280 278 278 282 284 283 282 281 282 281 281 279 279 280 281 280 280 280 280 281 281 281 281 281 282 283 283 284 285 287 288 290 291 291 293 295 298 297 297 299 301 303 306 312
279 278 278 278 279 278 276 276 277 281 282 282 282 281 281 280 278 278 279 279 278 278 278 279 280 280 280 280 282 282 283 283 283 283 284 286 288 289 290 291 296 296 297 298 300 302 303 303 311
276 280 280 279 274 272 276 271 277 279 279 281 282 281 280 278 278 278 278 278 278 278 279 278 279 279 280 280 280 279 279 278 281 282 283 285 287 287 289 291 294 294 295 296 299 302 305 307 306
277 280 278 278 272 269 274 269 275 277 278 280 280 281 280 278 277 277 276 278 277 278 277 277 277 278 280 280 279 279 278 279 281 281 282 284 285 286 289 291 292 291 292 293 294 296 299 303 306
281 278 279 274 272 264 270 271 274 275 274 278 279 279 279 278 277 278 277 277 276 277 276 277 277 277 278 278 278 278 277 278 278 279 280 282 283 286 287 289 289 289 290 291 291 293 295 298 301
279 278 273 267 263 268 272 270 276 276 276 276 277 277 275 275 276 276 275 275 276 276 276 276 276 276 277 277 277 277 277 277 277 278 279 280 281 283 284 286 286 287 288 289 290 291 292 294 295
278 277 274 269 265 266 274 267 279 277 276 272 271 271 274 276 276 275 275 275 274 275 275 275 275 275 276 275 275 276 276 277 277 278 279 279 279 281 283 285 285 285 286 287 288 289 290 290 290
277 275 277 271 268 268 273 276 277 279 275 273 273 277 276 275 274 273 274 273 273 273 274 273 273 274 274 274 274 275 276 276 276 277 277 278 279 280 282 282 282 283 284 284 285 286 286 286 286
279 280 273 273 268 267 273 270 274 272 273 274 272 275 275 274 274 273 272 272 272 272 272 272 272 270 269 272 274 275 275 275 275 275 275 276 279 280 280 280 281 281 282 283 284 285 286 285 286
275 276 275 275 271 270 266 272 272 271 268 272 273 275 272 272 272 271 271 271 268 269 267 268 268 266 270 271 273 274 275 275 274 273 274 276 279 280 279 280 280 280 281 282 282 284 285 285 286
279 277 277 273 270 265 265 270 269 267 263 264 272 275 273 272 270 269 269 266 265 265 266 265 265 265 269 270 272 273 274 274 273 274 275 276 277 280 279 280 280 280 280 280 281 282 283 284 285
Wind_Speed
6 3 2 5 4 3 3 5 1 2 2 2 2 2 4 3 3 3 4 3 5 7 7 8 15 17 17 18 19 19 19 19 20 20 20 19 22 12 8 8 7 8 12 14 14 15 14 14 13
3 0 4 3 5 1 5 3 5 4 3 6 4 2 2 2 1 6 5 4 7 7 8 9 15 16 17 17 18 19 19 19 19 19 20 19 18 18 18 10 8 7 11 13 13 15 15 13 12
1 4 4 4 3 6 5 4 3 2 4 2 4 3 3 4 2 6 3 6 7 8 8 10 14 15 17 17 17 18 18 19 18 18 17 16 17 17 19 16 14 10 8 13 14 15 15 14 14
2 4 4 3 6 6 6 3 4 4 0 2 3 3 1 1 4 4 7 6 7 8 9 12 15 16 17 17 17 18 18 17 17 17 17 17 17 17 16 17 16 14 11 11 14 14 15 16 16
5 3 3 1 5 5 4 3 7 4 3 1 1 3 1 1 4 7 6 5 8 8 9 10 15 16 16 16 16 17 18 17 16 16 16 17 17 16 16 16 16 14 13 11 13 14 15 15 18
4 3 2 4 5 4 4 4 5 4 3 2 2 5 3 2 7 5 6 6 6 7 7 8 11 13 14 13 15 16 17 16 17 18 17 17 17 16 16 16 15 15 14 14 12 13 13 15 16
6 4 4 3 4 5 5 6 5 6 5 5 5 5 1 6 7 8 7 6 6 6 7 7 7 9 12 10 13 15 16 16 17 17 16 17 17 16 16 17 15 16 15 14 12 12 12 13 16
5 4 2 4 4 6 2 4 0 5 5 2 2 6 4 5 9 8 6 6 5 5 6 6 6 5 6 4 11 13 14 16 17 16 17 18 15 16 16 15 16 17 16 15 13 11 12 12 13
3 3 3 5 6 4 0 3 1 0 3 2 2 1 1 6 10 7 4 3 3 3 4 4 5 6 7 4 7 9 10 12 14 14 15 12 9 10 13 15 17 17 17 16 15 14 12 9 10
4 4 8 4 4 3 2 3 2 1 2 4 3 2 4 8 7 8 6 6 3 2 2 4 5 7 7 6 7 7 8 6 6 7 9 7 8 9 11 11 15 15 16 16 14 14 12 7 6
4 6 4 3 4 3 2 2 2 4 6 9 8 5 8 7 8 8 7 5 4 2 1 3 5 6 7 7 7 5 5 6 6 9 8 8 8 7 6 6 6 7 10 7 9 8 6 8 6
2 5 4 3 3 4 4 1 3 7 7 2 8 4 8 10 11 10 8 6 5 4 3 1 3 5 5 5 5 7 7 7 7 8 10 8 6 8 7 6 8 7 6 9 8 5 8 8 10
3 3 2 5 3 5 1 7 6 11 8 7 1 6 9 10 8 5 6 5 5 5 2 2 4 4 5 6 5 6 6 6 8 8 9 8 8 8 8 8 7 7 7 7 7 8 8 9 10
2 4 7 6 5 4 5 2 4 8 2 7 7 9 7 9 10 4 7 7 7 4 2 3 5 5 6 7 7 6 6 7 7 8 8 10 8 8 8 8 9 8 7 8 7 8 8 8 8
2 6 6 5 3 5 5 6 12 9 2 4 7 7 7 8 6 11 8 7 7 3 3 3 3 4 6 6 6 6 6 7 7 7 9 9 9 9 10 9 9 9 8 11 9 9 8 8 8
3 1 4 0 4 0 2 6 4 1 6 8 8 6 7 7 7 5 5 5 6 5 3 1 2 4 6 6 6 6 6 6 6 6 7 11 10 10 10 9 9 9 9 9 8 8 8 7 8
2 5 4 8 3 2 5 5 3 1 3 7 7 7 6 6 6 5 5 6 6 5 3 0 3 5 7 8 7 8 8 6 6 6 7 10 10 10 9 9 10 11 9 9 9 8 8 8 8
4 4 4 5 1 2 4 14 16 16 8 14 8 7 6 7 9 5 6 5 5 4 2 3 4 6 7 7 7 6 6 5 6 7 7 10 10 11 9 9 10 10 8 9 9 10 8 8 8
1 3 5 5 1 2 9 8 18 20 8 11 9 6 7 6 2 5 6 5 4 2 0 3 4 5 5 5 6 5 6 7 6 6 11 11 10 11 10 8 8 9 9 10 11 10 11 7 4
3 5 6 5 1 2 6 16 20 16 8 5 4 3 4 2 3 5 5 4 3 1 1 3 4 5 5 5 5 4 7 6 8 7 8 9 10 10 11 11 10 8 8 12 12 11 9 8 7
4 5 4 5 5 1 7 9 7 2 2 2 2 0 1 1 5 4 4 3 1 1 1 3 5 6 6 6 6 6 7 6 5 6 7 8 10 11 12 12 11 8 7 8 10 11 13 9 6
2 2 1 3 4 4 3 9 7 3 6 3 3 3 0 2 3 3 3 1 1 1 3 4 6 7 7 7 7 8 8 9 9 9 8 9 12 11 12 12 7 8 7 9 9 8 9 10 9
5 2 2 3 2 4 1 2 10 3 2 3 5 4 2 2 3 3 2 2 0 2 3 4 6 7 7 7 7 7 8 8 9 9 12 12 10 12 11 9 9 9 6 8 10 9 7 7 8
3 2 2 3 3 2 3 4 7 3 5 1 2 3 4 2 3 1 1 3 3 3 4 4 6 6 8 7 8 8 9 10 9 10 9 8 7 7 11 9 8 9 9 9 7 9 8 7 7
4 4 4 5 4 6 1 2 10 5 3 4 5 7 5 5 4 4 3 3 4 4 5 6 6 9 8 8 9 9 9 10 11 11 8 11 7 7 8 9 10 8 9 10 8 7 7 5 5
2 3 3 5 3 5 2 7 4 5 3 5 6 8 8 7 5 5 4 3 4 5 7 7 8 9 9 9 10 8 8 6 7 9 9 8 8 8 10 10 9 10 10 9 9 6 4 4 4
3 2 2 3 2 2 3 6 6 2 4 4 6 6 7 6 5 5 4 3 4 5 6 6 7 8 9 9 8 9 8 8 9 10 9 8 10 8 8 8 9 9 9 8 7 6 4 2 3
0 4 2 1 2 4 4 5 5 4 4 5 7 7 7 5 6 4 3 3 4 5 6 7 7 6 6 7 6 7 8 8 7 6 8 8 9 9 8 7 6 8 8 8 7 6 4 2 3
3 2 1 1 1 2 3 7 7 6 5 7 9 9 7 7 5 4 3 3 4 4 4 5 5 5 6 6 6 7 7 8 6 5 6 7 9 8 8 7 7 7 7 6 7 6 5 3 4
2 2 3 2 3 1 1 9 3 6 5 4 12 11 7 5 6 4 3 4 5 5 5 5 5 5 5 5 6 6 7 7 6 6 6 6 7 7 7 7 7 7 8 7 6 6 3 3 3
Wind_Direction
345 340 68 45 75 62 261 256 240 199 226 327 31 158 167 63 157 173 152 102 94 61 36 20 33 31 28 26 27 27 27 26 21 21 18 13 7 357 320 321 325 214 208 212 206 198 194 194 182
330 204 48 85 100 118 261 251 217 201 155 130 70 26 55 126 93 130 131 102 83 60 35 31 34 30 25 24 23 20 19 21 22 21 18 10 0 7 6 326 314 292 231 225 214 212 202 196 185
193 23 86 98 122 192 219 221 231 158 153 166 113 47 152 167 103 140 119 114 85 61 41 37 35 32 24 20 19 16 15 13 15 15 16 11 6 0 3 2 353 316 280 246 228 223 217 204 190
55 22 44 105 215 244 205 209 194 151 86 43 131 136 236 12 159 158 133 104 81 52 43 34 34 29 24 19 18 14 11 10 11 9 7 6 4 4 3 358 357 353 315 276 253 247 228 213 197
34 58 86 220 247 259 243 226 161 176 165 185 228 192 229 287 101 126 124 96 86 58 42 35 32 26 22 20 18 12 8 6 6 4 2 360 360 1 0 357 353 342 339 313 275 256 252 227 208
47 88 99 231 243 243 257 191 168 181 178 186 123 147 224 125 149 157 118 96 89 85 59 45 33 29 22 18 18 11 6 7 2 360 358 356 353 354 353 354 353 349 339 337 321 281 266 240 220
124 102 220 222 244 288 231 159 185 176 166 228 145 164 171 200 195 153 128 110 98 81 65 46 33 24 19 19 20 10 3 3 0 357 356 352 348 348 348 349 347 343 335 330 319 324 307 261 243
108 102 176 238 212 259 177 185 136 161 213 83 187 202 213 207 165 143 133 126 110 83 58 40 33 25 14 12 20 10 3 360 356 355 353 350 345 343 343 342 340 335 331 324 317 306 302 305 266
136 59 233 244 168 249 324 226 200 316 139 229 197 158 51 126 133 142 156 155 131 100 72 48 20 16 13 17 9 1 2 359 354 351 349 348 341 339 334 332 330 330 328 323 318 308 289 294 293
100 152 223 213 202 238 213 193 214 201 199 259 286 129 115 134 162 170 184 201 196 171 95 35 22 11 6 3 358 353 350 349 350 345 342 338 332 331 330 323 325 326 326 323 322 318 309 268 270
161 211 211 247 223 181 203 258 200 165 240 220 206 199 170 173 183 197 205 205 205 159 78 25 10 8 9 358 350 350 347 342 341 342 339 329 328 326 327 323 328 327 325 326 320 313 307 277 255
264 241 217 259 209 163 203 185 259 201 225 171 216 154 170 188 196 203 205 192 178 184 179 102 27 9 9 355 348 339 339 337 334 333 333 331 324 323 322 317 317 313 315 313 314 312 302 293 269
224 301 245 290 254 243 302 231 236 257 225 221 166 178 190 201 204 203 191 189 177 196 184 26 14 12 2 349 339 334 331 324 321 322 324 325 318 311 313 311 310 305 304 298 302 305 304 298 291
311 286 274 272 242 250 227 284 137 252 304 216 201 220 218 212 204 173 181 186 188 176 163 27 6 4 354 340 331 322 318 313 310 312 312 314 308 304 304 306 305 301 300 296 292 292 292 287 280
303 319 305 232 223 244 173 269 236 231 181 188 221 230 237 232 196 211 193 189 176 169 121 34 349 20 337 322 314 311 300 304 295 299 305 309 306 302 299 301 299 297 297 295 291 287 283 279 278
318 70 330 139 150 229 166 277 265 195 180 236 231 232 238 243 233 218 198 176 154 139 158 93 0 324 321 325 321 317 311 303 297 300 306 309 305 301 296 296 295 295 294 291 284 285 286 279 275
336 254 221 314 176 130 180 278 278 145 205 264 237 236 230 250 251 229 182 162 155 148 126 43 329 337 337 330 326 320 316 312 311 310 307 304 304 302 295 294 293 293 290 285 281 278 271 278 276
241 251 248 251 251 213 243 257 275 270 207 243 244 255 254 243 230 205 167 148 132 118 92 352 345 342 339 329 321 311 309 305 314 308 303 306 303 299 294 289 285 286 286 287 282 275 272 269 277
287 235 258 259 212 266 246 269 276 276 234 257 254 254 261 269 312 150 144 132 123 116 354 340 328 335 331 330 329 323 308 309 297 303 299 296 292 295 296 285 293 290 287 289 285 283 278 274 218
265 275 273 275 96 242 306 287 269 277 267 221 245 237 274 166 98 128 135 131 150 184 300 320 312 308 319 321 310 288 302 290 297 300 304 313 302 312 304 301 292 286 293 289 286 273 272 257 210
225 211 245 258 323 160 313 287 317 278 278 243 237 228 360 300 180 173 169 172 122 286 298 300 313 321 320 314 306 303 297 293 310 317 312 310 312 309 301 290 285 295 291 284 285 273 260 257 239
281 342 304 344 41 268 21 286 301 320 302 268 267 218 83 106 103 139 163 244 264 259 317 317 325 319 317 321 316 308 308 308 311 310 308 310 307 305 297 287 296 295 291 288 285 290 282 246 245
226 17 68 90 86 22 315 51 273 336 80 51 25 26 281 188 170 192 264 264 98 306 304 321 310 308 315 315 307 307 303 299 302 302 304 305 309 303 294 311 311 301 297 290 291 293 300 287 253
156 44 105 61 107 326 219 128 284 235 199 7 11 6 7 294 227 240 337 211 256 321 327 327 321 319 315 318 314 310 296 301 299 299 299 300 301 300 301 309 313 304 298 289 286 291 284 286 285
37 56 312 329 11 229 235 80 253 274 239 220 280 313 324 323 309 293 288 300 328 324 331 323 333 318 321 318 311 301 299 298 293 297 299 299 297 297 302 305 305 300 295 292 282 278 282 290 292
77 162 214 253 305 295 82 238 239 212 247 266 273 273 299 302 296 294 299 306 313 325 329 331 331 322 322 315 307 304 296 291 294 288 288 290 288 285 287 289 295 295 288 289 286 274 271 291 289
159 192 71 119 170 263 247 270 301 338 326 354 325 313 295 309 324 306 301 316 323 323 321 330 319 322 322 314 313 310 302 296 285 285 287 282 278 276 278 286 290 292 287 280 276 272 257 256 248
100 137 146 137 234 260 291 280 243 312 294 304 294 304 309 317 323 306 301 327 327 326 328 327 329 299 289 305 314 313 301 285 282 291 287 282 281 283 289 289 282 280 278 281 278 264 246 235 245
148 197 154 43 277 241 303 274 210 209 220 258 289 304 303 306 295 290 300 315 316 314 332 311 311 311 312 318 312 308 306 303 303 295 292 293 300 302 304 299 295 284 282 292 280 265 257 239 249
85 171 173 215 194 218 185 274 197 224 232 236 283 299 295 270 283 283 304 317 325 324 320 312 311 317 311 304 317 323 319 317 322 313 304 296 294 311 317 317 311 321 325 311 299 298 308 261 252